Time,TemperatureF,DewpointF,PressureIn,WindDirection,WindDirectionDegrees,WindSpeedMPH,WindSpeedGustMPH,Humidity,HourlyPrecipIn,Conditions,Clouds,dailyrainin,SoftwareType,DateUTC
2013-07-28 00:04:00,64.9,51.6,30.20,SSW,194,4.0,18.0,62,0.00,,,0.00,meteohub,2013-07-28 07:04:00,
2013-07-28 00:09:00,64.8,51.4,30.20,SW,214,2.0,18.0,62,0.00,,,0.00,meteohub,2013-07-28 07:09:00,
2013-07-28 00:14:00,64.4,51.6,30.20,SSW,192,7.0,18.0,63,0.00,,,0.00,meteohub,2013-07-28 07:14:00,
2013-07-28 00:19:00,64.2,51.4,30.21,SSW,196,2.0,16.0,63,0.00,,,0.00,meteohub,2013-07-28 07:19:00,
2013-07-28 00:25:00,64.0,51.6,30.21,WNW,302,4.0,14.0,64,0.00,,,0.00,meteohub,2013-07-28 07:25:00,
2013-07-28 00:30:00,63.9,51.4,30.21,SSW,200,3.0,14.0,64,0.00,,,0.00,meteohub,2013-07-28 07:30:00,
2013-07-28 00:35:00,63.7,51.3,30.21,SW,214,8.0,14.0,64,0.00,,,0.00,meteohub,2013-07-28 07:35:00,
2013-07-28 00:40:00,63.3,51.4,30.21,South,179,2.0,14.0,65,0.00,,,0.00,meteohub,2013-07-28 07:40:00,
2013-07-28 00:45:00,63.3,51.4,30.21,SW,223,13.0,14.0,65,0.00,,,0.00,meteohub,2013-07-28 07:45:00,
2013-07-28 00:50:00,63.3,51.8,30.21,WSW,248,7.0,14.0,66,0.00,,,0.00,meteohub,2013-07-28 07:50:00,
2013-07-28 00:55:00,63.1,51.6,30.21,West,261,6.0,21.0,66,0.00,,,0.00,meteohub,2013-07-28 07:55:00,
2013-07-28 01:01:00,63.0,51.4,30.21,SW,227,9.0,21.0,66,0.00,,,0.00,meteohub,2013-07-28 08:01:00,
2013-07-28 01:06:00,62.8,51.6,30.22,SW,214,9.0,17.0,67,0.00,,,0.00,meteohub,2013-07-28 08:06:00,
2013-07-28 01:11:00,62.8,51.6,30.21,SW,233,9.0,17.0,67,0.00,,,0.00,meteohub,2013-07-28 08:11:00,
2013-07-28 01:16:00,62.6,51.4,30.21,WSW,250,11.0,17.0,67,0.00,,,0.00,meteohub,2013-07-28 08:16:00,
2013-07-28 01:21:00,62.4,51.3,30.21,SW,226,13.0,18.0,67,0.00,,,0.00,meteohub,2013-07-28 08:21:00,
2013-07-28 01:27:00,62.4,51.3,30.21,SW,216,18.0,19.0,67,0.00,,,0.00,meteohub,2013-07-28 08:27:00,
2013-07-28 01:32:00,62.4,51.3,30.20,SSW,206,14.0,23.0,67,0.00,,,0.00,meteohub,2013-07-28 08:32:00,
2013-07-28 01:37:00,62.2,51.6,30.20,WSW,248,12.0,23.0,68,0.00,,,0.00,meteohub,2013-07-28 08:37:00,
2013-07-28 01:42:00,62.2,51.1,30.20,WNW,286,10.0,23.0,67,0.00,,,0.00,meteohub,2013-07-28 08:42:00,
2013-07-28 01:48:00,62.2,51.1,30.20,SW,219,9.0,22.0,67,0.00,,,0.00,meteohub,2013-07-28 08:48:00,
2013-07-28 01:53:00,62.2,51.1,30.20,SW,225,7.0,22.0,67,0.00,,,0.00,meteohub,2013-07-28 08:53:00,
2013-07-28 01:58:00,62.2,51.1,30.20,West,270,7.0,21.0,67,0.00,,,0.00,meteohub,2013-07-28 08:58:00,
2013-07-28 02:03:00,62.1,50.9,30.21,SW,227,14.0,21.0,67,0.00,,,0.00,meteohub,2013-07-28 09:03:00,
2013-07-28 02:08:00,62.1,51.4,30.21,WNW,286,11.0,21.0,68,0.00,,,0.00,meteohub,2013-07-28 09:08:00,
2013-07-28 02:14:00,61.7,51.1,30.20,West,269,11.0,21.0,68,0.00,,,0.00,meteohub,2013-07-28 09:14:00,
2013-07-28 02:19:00,61.3,51.1,30.20,SSW,207,9.0,22.0,69,0.00,,,0.00,meteohub,2013-07-28 09:19:00,
2013-07-28 02:24:00,61.2,50.9,30.19,South,184,5.0,22.0,69,0.00,,,0.00,meteohub,2013-07-28 09:24:00,
2013-07-28 02:30:00,61.0,51.1,30.19,WSW,245,10.0,21.0,70,0.00,,,0.00,meteohub,2013-07-28 09:30:00,
2013-07-28 02:35:00,60.6,50.7,30.19,West,274,16.0,22.0,70,0.00,,,0.00,meteohub,2013-07-28 09:35:00,
2013-07-28 02:40:00,60.4,51.1,30.19,WSW,256,15.0,22.0,71,0.00,,,0.00,meteohub,2013-07-28 09:40:00,
2013-07-28 02:45:00,60.4,51.1,30.19,SW,226,14.0,22.0,71,0.00,,,0.00,meteohub,2013-07-28 09:45:00,
2013-07-28 02:50:00,60.3,50.9,30.19,SW,221,8.0,22.0,71,0.00,,,0.00,meteohub,2013-07-28 09:50:00,
2013-07-28 02:55:00,60.1,51.1,30.19,SW,236,15.0,26.0,72,0.00,,,0.00,meteohub,2013-07-28 09:55:00,
2013-07-28 03:01:00,59.9,50.9,30.19,SW,226,12.0,26.0,72,0.00,,,0.00,meteohub,2013-07-28 10:01:00,
2013-07-28 03:06:00,60.1,51.1,30.19,West,273,11.0,24.0,72,0.00,,,0.00,meteohub,2013-07-28 10:06:00,
2013-07-28 03:11:00,59.9,50.9,30.20,WSW,248,15.0,24.0,72,0.00,,,0.00,meteohub,2013-07-28 10:11:00,
2013-07-28 03:17:00,59.7,50.7,30.20,SW,226,14.0,23.0,72,0.00,,,0.00,meteohub,2013-07-28 10:17:00,
2013-07-28 03:22:00,59.7,50.7,30.20,WSW,237,21.0,23.0,72,0.00,,,0.00,meteohub,2013-07-28 10:22:00,
2013-07-28 03:27:00,59.5,50.9,30.19,SW,221,20.0,24.0,73,0.00,,,0.00,meteohub,2013-07-28 10:27:00,
2013-07-28 03:32:00,59.4,50.7,30.20,SW,233,12.0,26.0,73,0.00,,,0.00,meteohub,2013-07-28 10:32:00,
2013-07-28 03:37:00,59.4,50.7,30.20,SW,222,7.0,26.0,73,0.00,,,0.00,meteohub,2013-07-28 10:37:00,
2013-07-28 03:42:00,59.2,50.5,30.20,SW,221,14.0,21.0,73,0.00,,,0.00,meteohub,2013-07-28 10:42:00,
2013-07-28 03:48:00,59.2,50.5,30.20,WSW,250,5.0,21.0,73,0.00,,,0.00,meteohub,2013-07-28 10:48:00,
2013-07-28 03:53:00,58.8,50.5,30.20,South,173,5.0,21.0,74,0.00,,,0.00,meteohub,2013-07-28 10:53:00,
2013-07-28 03:58:00,58.8,50.5,30.21,SW,226,4.0,14.0,74,0.00,,,0.00,meteohub,2013-07-28 10:58:00,
2013-07-28 04:03:00,58.5,50.5,30.21,South,187,4.0,15.0,75,0.00,,,0.00,meteohub,2013-07-28 11:03:00,
2013-07-28 04:09:00,58.3,50.7,30.21,SW,214,5.0,15.0,76,0.00,,,0.00,meteohub,2013-07-28 11:09:00,
2013-07-28 04:14:00,57.9,50.4,30.21,South,173,4.0,15.0,76,0.00,,,0.00,meteohub,2013-07-28 11:14:00,
2013-07-28 04:19:00,57.7,50.2,30.22,West,259,10.0,13.0,76,0.00,,,0.00,meteohub,2013-07-28 11:19:00,
2013-07-28 04:24:00,57.7,50.5,30.22,South,179,8.0,13.0,77,0.00,,,0.00,meteohub,2013-07-28 11:24:00,
2013-07-28 04:30:00,57.6,50.4,30.21,SW,217,4.0,16.0,77,0.00,,,0.00,meteohub,2013-07-28 11:30:00,
2013-07-28 04:35:00,57.6,50.4,30.22,SSW,203,6.0,16.0,77,0.00,,,0.00,meteohub,2013-07-28 11:35:00,
2013-07-28 04:40:00,57.6,50.4,30.21,WSW,240,10.0,15.0,77,0.00,,,0.00,meteohub,2013-07-28 11:40:00,
2013-07-28 04:45:00,57.6,50.4,30.22,WSW,253,6.0,15.0,77,0.00,,,0.00,meteohub,2013-07-28 11:45:00,
2013-07-28 04:50:00,57.7,50.2,30.22,SW,234,2.0,15.0,76,0.00,,,0.00,meteohub,2013-07-28 11:50:00,
2013-07-28 04:55:00,57.6,50.0,30.21,WSW,237,9.0,15.0,76,0.00,,,0.00,meteohub,2013-07-28 11:55:00,
2013-07-28 05:00:00,57.6,50.0,30.21,SSW,196,12.0,15.0,76,0.00,,,0.00,meteohub,2013-07-28 12:00:00,
2013-07-28 05:06:00,57.6,50.0,30.22,WSW,248,3.0,15.0,76,0.00,,,0.00,meteohub,2013-07-28 12:06:00,
2013-07-28 05:11:00,57.7,50.2,30.22,WSW,240,6.0,17.0,76,0.00,,,0.00,meteohub,2013-07-28 12:11:00,
2013-07-28 05:16:00,57.7,49.8,30.22,NW,314,5.0,17.0,75,0.00,,,0.00,meteohub,2013-07-28 12:16:00,
2013-07-28 05:21:00,57.7,49.8,30.21,SW,228,4.0,19.0,75,0.00,,,0.00,meteohub,2013-07-28 12:21:00,
2013-07-28 05:26:00,57.9,50.0,30.22,WSW,248,5.0,19.0,75,0.00,,,0.00,meteohub,2013-07-28 12:26:00,
2013-07-28 05:31:00,57.7,49.8,30.22,SSW,213,9.0,19.0,75,0.00,,,0.00,meteohub,2013-07-28 12:31:00,
2013-07-28 05:36:00,57.7,49.8,30.22,SW,214,10.0,19.0,75,0.00,,,0.00,meteohub,2013-07-28 12:36:00,
2013-07-28 05:41:00,57.6,49.6,30.22,WSW,253,7.0,19.0,75,0.00,,,0.00,meteohub,2013-07-28 12:41:00,
2013-07-28 05:46:00,57.6,50.0,30.22,SSW,213,19.0,19.0,76,0.00,,,0.00,meteohub,2013-07-28 12:46:00,
2013-07-28 05:52:00,57.4,49.8,30.22,SW,222,9.0,19.0,76,0.00,,,0.00,meteohub,2013-07-28 12:52:00,
2013-07-28 05:57:00,57.4,49.8,30.22,South,179,4.0,19.0,76,0.00,,,0.00,meteohub,2013-07-28 12:57:00,
2013-07-28 06:02:00,57.2,49.6,30.22,SW,221,5.0,19.0,76,0.00,,,0.00,meteohub,2013-07-28 13:02:00,
2013-07-28 06:07:00,57.0,49.8,30.22,West,271,7.0,19.0,77,0.00,,,0.00,meteohub,2013-07-28 13:07:00,
2013-07-28 06:12:00,56.8,49.6,30.22,West,268,6.0,19.0,77,0.00,,,0.00,meteohub,2013-07-28 13:12:00,
2013-07-28 06:18:00,56.8,50.0,30.22,SSW,205,4.0,14.0,78,0.00,,,0.00,meteohub,2013-07-28 13:18:00,
2013-07-28 06:23:00,56.7,49.8,30.23,WSW,242,14.0,19.0,78,0.00,,,0.00,meteohub,2013-07-28 13:23:00,
2013-07-28 06:28:00,57.0,49.8,30.22,SW,217,7.0,22.0,77,0.00,,,0.00,meteohub,2013-07-28 13:28:00,
2013-07-28 06:33:00,57.6,50.0,30.22,WSW,238,13.0,22.0,76,0.00,,,0.00,meteohub,2013-07-28 13:33:00,
2013-07-28 06:38:00,57.7,49.8,30.22,WSW,245,18.0,22.0,75,0.00,,,0.00,meteohub,2013-07-28 13:38:00,
2013-07-28 06:44:00,57.7,50.2,30.23,WSW,248,7.0,20.0,76,0.00,,,0.00,meteohub,2013-07-28 13:44:00,
2013-07-28 06:49:00,57.9,50.0,30.22,SW,227,14.0,20.0,75,0.00,,,0.00,meteohub,2013-07-28 13:49:00,
2013-07-28 06:54:00,57.9,50.0,30.23,WSW,245,10.0,21.0,75,0.00,,,0.00,meteohub,2013-07-28 13:54:00,
2013-07-28 07:00:00,58.3,50.0,30.23,SW,226,7.0,21.0,74,0.00,,,0.00,meteohub,2013-07-28 14:00:00,
2013-07-28 07:05:00,58.3,49.6,30.23,South,187,10.0,21.0,73,0.00,,,0.00,meteohub,2013-07-28 14:05:00,
2013-07-28 07:10:00,58.3,50.0,30.23,SSE,163,7.0,18.0,74,0.00,,,0.00,meteohub,2013-07-28 14:10:00,
2013-07-28 07:15:00,58.5,49.8,30.23,SSW,200,9.0,18.0,73,0.00,,,0.00,meteohub,2013-07-28 14:15:00,
2013-07-28 07:20:00,58.6,49.6,30.23,West,263,10.0,19.0,72,0.00,,,0.00,meteohub,2013-07-28 14:20:00,
2013-07-28 07:25:00,58.6,49.6,30.23,WSW,248,10.0,19.0,72,0.00,,,0.00,meteohub,2013-07-28 14:25:00,
2013-07-28 07:31:00,58.8,49.8,30.23,SW,233,13.0,19.0,72,0.00,,,0.00,meteohub,2013-07-28 14:31:00,
2013-07-28 07:36:00,58.8,49.8,30.23,SW,230,7.0,17.0,72,0.00,,,0.00,meteohub,2013-07-28 14:36:00,
2013-07-28 07:41:00,59.0,49.6,30.23,SW,219,10.0,18.0,71,0.00,,,0.00,meteohub,2013-07-28 14:41:00,
2013-07-28 07:46:00,59.2,49.8,30.23,WSW,253,4.0,18.0,71,0.00,,,0.00,meteohub,2013-07-28 14:46:00,
2013-07-28 07:51:00,59.2,49.5,30.23,West,280,10.0,18.0,70,0.00,,,0.00,meteohub,2013-07-28 14:51:00,
2013-07-28 07:56:00,59.4,49.6,30.23,NW,311,11.0,20.0,70,0.00,,,0.00,meteohub,2013-07-28 14:56:00,
2013-07-28 08:02:00,59.4,49.6,30.23,SW,219,13.0,22.0,70,0.00,,,0.00,meteohub,2013-07-28 15:02:00,
2013-07-28 08:07:00,59.5,49.8,30.23,SW,233,7.0,22.0,70,0.00,,,0.00,meteohub,2013-07-28 15:07:00,
2013-07-28 08:12:00,59.5,49.8,30.23,West,281,7.0,19.0,70,0.00,,,0.00,meteohub,2013-07-28 15:12:00,
2013-07-28 08:17:00,60.1,49.8,30.23,SSW,206,7.0,19.0,69,0.00,,,0.00,meteohub,2013-07-28 15:17:00,
2013-07-28 08:22:00,60.1,49.8,30.23,WSW,253,10.0,19.0,69,0.00,,,0.00,meteohub,2013-07-28 15:22:00,
2013-07-28 08:27:00,60.3,50.0,30.22,WSW,242,5.0,19.0,69,0.00,,,0.00,meteohub,2013-07-28 15:27:00,
2013-07-28 08:33:00,60.4,49.8,30.22,WSW,253,10.0,17.0,68,0.00,,,0.00,meteohub,2013-07-28 15:33:00,
2013-07-28 08:38:00,60.6,50.0,30.22,SW,226,6.0,22.0,68,0.00,,,0.00,meteohub,2013-07-28 15:38:00,
2013-07-28 08:44:00,60.8,49.8,30.22,NW,308,5.0,22.0,67,0.00,,,0.00,meteohub,2013-07-28 15:44:00,
2013-07-28 08:49:00,61.0,50.0,30.23,WNW,295,6.0,18.0,67,0.00,,,0.00,meteohub,2013-07-28 15:49:00,
2013-07-28 08:54:00,61.0,50.0,30.22,SW,232,3.0,18.0,67,0.00,,,0.00,meteohub,2013-07-28 15:54:00,
2013-07-28 08:59:00,61.2,50.2,30.22,WSW,241,4.0,19.0,67,0.00,,,0.00,meteohub,2013-07-28 15:59:00,
2013-07-28 09:04:00,61.3,49.8,30.22,WSW,253,5.0,19.0,66,0.00,,,0.00,meteohub,2013-07-28 16:04:00,
2013-07-28 09:10:00,61.7,50.7,30.22,WSW,248,4.0,19.0,67,0.00,,,0.00,meteohub,2013-07-28 16:10:00,
2013-07-28 09:15:00,61.7,50.2,30.22,WSW,257,8.0,18.0,66,0.00,,,0.00,meteohub,2013-07-28 16:15:00,
2013-07-28 09:20:00,62.1,50.5,30.22,SW,232,15.0,18.0,66,0.00,,,0.00,meteohub,2013-07-28 16:20:00,
2013-07-28 09:25:00,62.2,50.4,30.21,West,259,11.0,16.0,65,0.00,,,0.00,meteohub,2013-07-28 16:25:00,
2013-07-28 09:30:00,62.2,50.4,30.21,WSW,257,6.0,15.0,65,0.00,,,0.00,meteohub,2013-07-28 16:30:00,
2013-07-28 09:36:00,62.2,50.4,30.21,WNW,290,12.0,16.0,65,0.00,,,0.00,meteohub,2013-07-28 16:36:00,
2013-07-28 09:42:00,62.4,50.5,30.20,West,277,5.0,25.0,65,0.00,,,0.00,meteohub,2013-07-28 16:42:00,
2013-07-28 09:47:00,62.8,50.9,30.21,WSW,255,13.0,25.0,65,0.00,,,0.00,meteohub,2013-07-28 16:47:00,
2013-07-28 09:52:00,63.1,50.7,30.21,NNW,333,2.0,25.0,64,0.00,,,0.00,meteohub,2013-07-28 16:52:00,
2013-07-28 09:57:00,63.3,50.5,30.21,WSW,253,11.0,17.0,63,0.00,,,0.00,meteohub,2013-07-28 16:57:00,
2013-07-28 10:02:00,63.3,50.9,30.21,WSW,255,4.0,18.0,64,0.00,,,0.00,meteohub,2013-07-28 17:02:00,
2013-07-28 10:08:00,63.7,50.9,30.20,SSW,211,7.0,20.0,63,0.00,,,0.00,meteohub,2013-07-28 17:08:00,
2013-07-28 10:13:00,63.7,50.4,30.20,WSW,238,15.0,20.0,62,0.00,,,0.00,meteohub,2013-07-28 17:13:00,
2013-07-28 10:18:00,63.5,50.7,30.20,SW,230,6.0,20.0,63,0.00,,,0.00,meteohub,2013-07-28 17:18:00,
2013-07-28 10:23:00,63.7,50.9,30.20,WSW,242,15.0,27.0,63,0.00,,,0.00,meteohub,2013-07-28 17:23:00,
2013-07-28 10:28:00,63.9,50.5,30.20,SSW,200,3.0,27.0,62,0.00,,,0.00,meteohub,2013-07-28 17:28:00,
2013-07-28 10:34:00,64.0,50.7,30.20,WSW,246,16.0,27.0,62,0.00,,,0.00,meteohub,2013-07-28 17:34:00,
2013-07-28 10:39:00,64.2,50.9,30.20,SSW,213,7.0,24.0,62,0.00,,,0.00,meteohub,2013-07-28 17:39:00,
2013-07-28 10:41:00,64.2,50.9,30.20,SW,227,4.0,23.0,62,0.00,,,0.00,meteohub,2013-07-28 17:41:00,
2013-07-28 10:47:00,64.6,50.9,30.20,West,274,16.0,23.0,61,0.00,,,0.00,meteohub,2013-07-28 17:47:00,
2013-07-28 10:52:00,64.4,51.1,30.20,WSW,241,12.0,21.0,62,0.00,,,0.00,meteohub,2013-07-28 17:52:00,
2013-07-28 10:57:00,64.9,51.1,30.20,WSW,239,11.0,21.0,61,0.00,,,0.00,meteohub,2013-07-28 17:57:00,
2013-07-28 11:02:00,65.5,51.3,30.20,WNW,301,11.0,19.0,60,0.00,,,0.00,meteohub,2013-07-28 18:02:00,
2013-07-28 11:08:00,65.7,51.4,30.20,WSW,253,11.0,18.0,60,0.00,,,0.00,meteohub,2013-07-28 18:08:00,
2013-07-28 11:13:00,65.8,51.1,30.20,SW,230,6.0,20.0,59,0.00,,,0.00,meteohub,2013-07-28 18:13:00,
2013-07-28 11:18:00,66.0,51.3,30.20,ENE,61,3.0,20.0,59,0.00,,,0.00,meteohub,2013-07-28 18:18:00,
2013-07-28 11:23:00,66.6,51.8,30.20,West,279,11.0,17.0,59,0.00,,,0.00,meteohub,2013-07-28 18:23:00,
2013-07-28 11:28:00,66.7,51.4,30.20,NW,312,4.0,23.0,58,0.00,,,0.00,meteohub,2013-07-28 18:28:00,
2013-07-28 11:34:00,67.3,51.4,30.20,WSW,250,6.0,23.0,57,0.00,,,0.00,meteohub,2013-07-28 18:34:00,
2013-07-28 11:39:00,67.3,51.4,30.20,WSW,241,6.0,23.0,57,0.00,,,0.00,meteohub,2013-07-28 18:39:00,
2013-07-28 11:45:00,67.3,51.1,30.19,SSW,207,8.0,17.0,56,0.00,,,0.00,meteohub,2013-07-28 18:45:00,
2013-07-28 11:50:00,67.5,51.3,30.19,SW,221,15.0,17.0,56,0.00,,,0.00,meteohub,2013-07-28 18:50:00,
2013-07-28 11:55:00,67.5,51.3,30.19,SW,225,12.0,22.0,56,0.00,,,0.00,meteohub,2013-07-28 18:55:00,
2013-07-28 12:01:00,67.6,51.4,30.19,WNW,297,7.0,22.0,56,0.00,,,0.00,meteohub,2013-07-28 19:01:00,
2013-07-28 12:06:00,67.3,51.4,30.19,West,272,8.0,22.0,57,0.00,,,0.00,meteohub,2013-07-28 19:06:00,
2013-07-28 12:11:00,67.5,51.3,30.19,SW,226,14.0,20.0,56,0.00,,,0.00,meteohub,2013-07-28 19:11:00,
2013-07-28 12:16:00,67.6,51.4,30.19,SSW,207,11.0,21.0,56,0.00,,,0.00,meteohub,2013-07-28 19:16:00,
2013-07-28 12:21:00,68.0,51.8,30.19,SW,233,10.0,21.0,56,0.00,,,0.00,meteohub,2013-07-28 19:21:00,
2013-07-28 12:27:00,68.4,51.6,30.19,South,183,13.0,24.0,55,0.00,,,0.00,meteohub,2013-07-28 19:27:00,
2013-07-28 12:32:00,68.4,51.1,30.19,SSW,205,7.0,24.0,54,0.00,,,0.00,meteohub,2013-07-28 19:32:00,
2013-07-28 12:37:00,68.5,51.3,30.19,WNW,285,4.0,24.0,54,0.00,,,0.00,meteohub,2013-07-28 19:37:00,
2013-07-28 12:42:00,68.9,51.6,30.19,West,269,4.0,20.0,54,0.00,,,0.00,meteohub,2013-07-28 19:42:00,
2013-07-28 12:47:00,69.4,51.6,30.19,WSW,249,5.0,19.0,53,0.00,,,0.00,meteohub,2013-07-28 19:47:00,
2013-07-28 12:52:00,70.0,51.6,30.19,SSW,207,8.0,17.0,52,0.00,,,0.00,meteohub,2013-07-28 19:52:00,
2013-07-28 12:57:00,69.6,51.3,30.18,WSW,253,10.0,19.0,52,0.00,,,0.00,meteohub,2013-07-28 19:57:00,
2013-07-28 13:02:00,69.4,51.1,30.18,WSW,242,14.0,20.0,52,0.00,,,0.00,meteohub,2013-07-28 20:02:00,
2013-07-28 13:07:00,69.6,51.3,30.18,SW,221,8.0,26.0,52,0.00,,,0.00,meteohub,2013-07-28 20:07:00,
2013-07-28 13:12:00,70.0,51.6,30.18,SW,217,7.0,26.0,52,0.00,,,0.00,meteohub,2013-07-28 20:12:00,
2013-07-28 13:17:00,69.8,51.4,30.18,WNW,302,5.0,20.0,52,0.00,,,0.00,meteohub,2013-07-28 20:17:00,
2013-07-28 13:22:00,70.0,51.1,30.18,WSW,246,10.0,19.0,51,0.00,,,0.00,meteohub,2013-07-28 20:22:00,
2013-07-28 13:27:00,70.3,51.4,30.18,SW,232,11.0,19.0,51,0.00,,,0.00,meteohub,2013-07-28 20:27:00,
2013-07-28 13:33:00,70.5,52.0,30.18,WSW,255,9.0,23.0,52,0.00,,,0.00,meteohub,2013-07-28 20:33:00,
2013-07-28 13:38:00,70.9,52.3,30.18,WNW,292,10.0,23.0,52,0.00,,,0.00,meteohub,2013-07-28 20:38:00,
2013-07-28 13:43:00,70.9,52.3,30.18,WSW,250,6.0,23.0,52,0.00,,,0.00,meteohub,2013-07-28 20:43:00,
2013-07-28 13:48:00,70.7,52.2,30.17,WSW,249,11.0,18.0,52,0.00,,,0.00,meteohub,2013-07-28 20:48:00,
2013-07-28 13:53:00,70.5,52.0,30.17,West,276,7.0,20.0,52,0.00,,,0.00,meteohub,2013-07-28 20:53:00,
2013-07-28 13:58:00,70.9,52.3,30.16,West,263,7.0,20.0,52,0.00,,,0.00,meteohub,2013-07-28 20:58:00,
2013-07-28 14:03:00,71.2,52.2,30.17,West,265,12.0,22.0,51,0.00,,,0.00,meteohub,2013-07-28 21:03:00,
2013-07-28 14:08:00,71.4,51.8,30.17,SW,230,29.0,29.0,50,0.00,,,0.00,meteohub,2013-07-28 21:08:00,
2013-07-28 14:14:00,71.4,51.8,30.17,WSW,241,13.0,22.0,50,0.00,,,0.00,meteohub,2013-07-28 21:14:00,
2013-07-28 14:19:00,71.4,51.8,30.17,SW,234,9.0,29.0,50,0.00,,,0.00,meteohub,2013-07-28 21:19:00,
2013-07-28 14:24:00,71.4,52.3,30.16,SW,233,13.0,29.0,51,0.00,,,0.00,meteohub,2013-07-28 21:24:00,
2013-07-28 14:30:00,71.4,51.8,30.17,WNW,286,9.0,23.0,50,0.00,,,0.00,meteohub,2013-07-28 21:30:00,
2013-07-28 14:35:00,71.4,51.8,30.17,SW,233,13.0,23.0,50,0.00,,,0.00,meteohub,2013-07-28 21:35:00,
2013-07-28 14:40:00,71.8,52.2,30.16,West,277,15.0,25.0,50,0.00,,,0.00,meteohub,2013-07-28 21:40:00,
2013-07-28 14:45:00,72.0,51.8,30.16,West,265,13.0,25.0,49,0.00,,,0.00,meteohub,2013-07-28 21:45:00,
2013-07-28 14:50:00,72.3,51.4,30.16,SW,219,5.0,20.0,48,0.00,,,0.00,meteohub,2013-07-28 21:50:00,
2013-07-28 14:56:00,72.1,50.7,30.16,West,264,6.0,20.0,47,0.00,,,0.00,meteohub,2013-07-28 21:56:00,
2013-07-28 15:01:00,72.7,51.8,30.16,SW,230,18.0,21.0,48,0.00,,,0.00,meteohub,2013-07-28 22:01:00,
2013-07-28 15:06:00,72.7,51.8,30.15,West,273,11.0,21.0,48,0.00,,,0.00,meteohub,2013-07-28 22:06:00,
2013-07-28 15:11:00,72.5,50.5,30.15,SW,214,8.0,24.0,46,0.00,,,0.00,meteohub,2013-07-28 22:11:00,
2013-07-28 15:16:00,72.9,50.9,30.16,West,263,9.0,24.0,46,0.00,,,0.00,meteohub,2013-07-28 22:16:00,
2013-07-28 15:21:00,72.7,50.7,30.16,WNW,285,7.0,23.0,46,0.00,,,0.00,meteohub,2013-07-28 22:21:00,
2013-07-28 15:27:00,73.0,51.6,30.16,SW,221,5.0,23.0,47,0.00,,,0.00,meteohub,2013-07-28 22:27:00,
2013-07-28 15:32:00,73.2,51.3,30.16,West,265,9.0,23.0,46,0.00,,,0.00,meteohub,2013-07-28 22:32:00,
2013-07-28 15:37:00,73.0,51.6,30.16,WSW,253,13.0,20.0,47,0.00,,,0.00,meteohub,2013-07-28 22:37:00,
2013-07-28 15:42:00,72.7,50.7,30.16,WSW,253,20.0,24.0,46,0.00,,,0.00,meteohub,2013-07-28 22:42:00,
2013-07-28 15:47:00,72.7,51.3,30.16,West,280,9.0,24.0,47,0.00,,,0.00,meteohub,2013-07-28 22:47:00,
2013-07-28 15:52:00,72.7,51.8,30.16,WNW,295,12.0,24.0,48,0.00,,,0.00,meteohub,2013-07-28 22:52:00,
2013-07-28 15:57:00,72.3,51.4,30.16,West,272,16.0,23.0,48,0.00,,,0.00,meteohub,2013-07-28 22:57:00,
2013-07-28 16:02:00,72.7,52.3,30.17,SW,215,10.0,22.0,49,0.00,,,0.00,meteohub,2013-07-28 23:02:00,
2013-07-28 16:07:00,73.0,52.2,30.17,WSW,242,4.0,22.0,48,0.00,,,0.00,meteohub,2013-07-28 23:07:00,
2013-07-28 16:12:00,73.0,52.2,30.17,West,259,17.0,19.0,48,0.00,,,0.00,meteohub,2013-07-28 23:12:00,
2013-07-28 16:17:00,72.9,52.0,30.17,SSW,202,11.0,18.0,48,0.00,,,0.00,meteohub,2013-07-28 23:17:00,
2013-07-28 16:23:00,73.0,52.2,30.17,SSW,211,8.0,18.0,48,0.00,,,0.00,meteohub,2013-07-28 23:23:00,
2013-07-28 16:28:00,73.0,53.2,30.17,SW,236,8.0,18.0,50,0.00,,,0.00,meteohub,2013-07-28 23:28:00,
2013-07-28 16:33:00,72.9,52.5,30.17,WSW,256,3.0,19.0,49,0.00,,,0.00,meteohub,2013-07-28 23:33:00,
2013-07-28 16:38:00,72.7,52.9,30.17,West,260,7.0,19.0,50,0.00,,,0.00,meteohub,2013-07-28 23:38:00,
2013-07-28 16:43:00,72.9,52.5,30.17,SW,230,9.0,18.0,49,0.00,,,0.00,meteohub,2013-07-28 23:43:00,
2013-07-28 16:48:00,72.9,52.0,30.17,WSW,242,10.0,18.0,48,0.00,,,0.00,meteohub,2013-07-28 23:48:00,
2013-07-28 16:53:00,72.9,52.5,30.17,WSW,254,6.0,18.0,49,0.00,,,0.00,meteohub,2013-07-28 23:53:00,
2013-07-28 16:58:00,72.9,52.0,30.16,SSW,207,7.0,18.0,48,0.00,,,0.00,meteohub,2013-07-28 23:58:00,
2013-07-28 17:04:00,72.9,52.0,30.16,South,191,7.0,21.0,48,0.00,,,0.00,meteohub,2013-07-29 00:04:00,
2013-07-28 17:09:00,73.0,52.2,30.16,WNW,283,7.0,23.0,48,0.00,,,0.00,meteohub,2013-07-29 00:09:00,
2013-07-28 17:14:00,73.2,51.3,30.16,SSW,213,7.0,23.0,46,0.00,,,0.00,meteohub,2013-07-29 00:14:00,
2013-07-28 17:19:00,73.2,51.3,30.16,SW,236,8.0,23.0,46,0.00,,,0.00,meteohub,2013-07-29 00:19:00,
2013-07-28 17:25:00,73.2,51.8,30.16,SW,230,5.0,14.0,47,0.00,,,0.00,meteohub,2013-07-29 00:25:00,
2013-07-28 17:30:00,73.2,52.3,30.16,WSW,256,10.0,16.0,48,0.00,,,0.00,meteohub,2013-07-29 00:30:00,
2013-07-28 17:35:00,73.2,51.8,30.16,WSW,241,8.0,16.0,47,0.00,,,0.00,meteohub,2013-07-29 00:35:00,
2013-07-28 17:40:00,72.9,50.9,30.16,WSW,248,8.0,16.0,46,0.00,,,0.00,meteohub,2013-07-29 00:40:00,
2013-07-28 17:45:00,73.0,51.6,30.15,WSW,241,5.0,18.0,47,0.00,,,0.00,meteohub,2013-07-29 00:45:00,
2013-07-28 17:51:00,73.6,51.4,30.15,SW,236,2.0,18.0,46,0.00,,,0.00,meteohub,2013-07-29 00:51:00,
2013-07-28 17:56:00,73.2,51.8,30.16,SW,223,11.0,14.0,47,0.00,,,0.00,meteohub,2013-07-29 00:56:00,
2013-07-28 18:01:00,73.0,52.2,30.15,West,264,4.0,15.0,48,0.00,,,0.00,meteohub,2013-07-29 01:01:00,
2013-07-28 18:06:00,72.5,52.3,30.15,WNW,299,11.0,19.0,49,0.00,,,0.00,meteohub,2013-07-29 01:06:00,
2013-07-28 18:11:00,72.5,52.3,30.15,West,272,10.0,20.0,49,0.00,,,0.00,meteohub,2013-07-29 01:11:00,
2013-07-28 18:17:00,72.3,52.2,30.15,SW,214,6.0,20.0,49,0.00,,,0.00,meteohub,2013-07-29 01:17:00,
2013-07-28 18:21:00,72.1,52.0,30.14,West,259,3.0,21.0,49,0.00,,,0.00,meteohub,2013-07-29 01:21:00,
2013-07-28 18:25:00,72.1,52.0,30.14,West,259,6.0,21.0,49,0.00,,,0.00,meteohub,2013-07-29 01:25:00,
2013-07-28 18:32:00,72.0,52.3,30.15,South,186,6.0,21.0,50,0.00,,,0.00,meteohub,2013-07-29 01:32:00,
2013-07-28 18:37:00,72.0,52.3,30.15,ESE,105,5.0,20.0,50,0.00,,,0.00,meteohub,2013-07-29 01:37:00,
2013-07-28 18:42:00,72.0,52.3,30.15,SSW,197,7.0,17.0,50,0.00,,,0.00,meteohub,2013-07-29 01:42:00,
2013-07-28 18:47:00,72.0,52.3,30.15,WNW,285,5.0,17.0,50,0.00,,,0.00,meteohub,2013-07-29 01:47:00,
2013-07-28 18:57:00,71.8,52.2,30.15,SW,221,6.0,17.0,50,0.00,,,0.00,meteohub,2013-07-29 01:57:00,
2013-07-28 19:03:00,71.4,51.8,30.15,SW,225,4.0,16.0,50,0.00,,,0.00,meteohub,2013-07-29 02:03:00,
2013-07-28 19:10:00,71.4,52.3,30.15,SW,222,4.0,18.0,51,0.00,,,0.00,meteohub,2013-07-29 02:10:00,
2013-07-28 19:15:00,71.1,52.0,30.15,WSW,254,9.0,21.0,51,0.00,,,0.00,meteohub,2013-07-29 02:15:00,
2013-07-28 19:21:00,70.7,51.6,30.16,SW,222,10.0,21.0,51,0.00,,,0.00,meteohub,2013-07-29 02:21:00,
2013-07-28 19:26:00,70.5,51.4,30.16,WNW,292,9.0,20.0,51,0.00,,,0.00,meteohub,2013-07-29 02:26:00,
2013-07-28 19:31:00,70.3,51.8,30.16,WSW,250,4.0,20.0,52,0.00,,,0.00,meteohub,2013-07-29 02:31:00,
2013-07-28 19:36:00,70.5,52.0,30.16,WSW,248,11.0,20.0,52,0.00,,,0.00,meteohub,2013-07-29 02:36:00,
2013-07-28 19:37:00,70.3,51.8,30.16,WSW,237,9.0,18.0,52,0.00,,,0.00,meteohub,2013-07-29 02:37:00,
2013-07-28 19:42:00,70.3,51.8,30.16,SW,227,8.0,18.0,52,0.00,,,0.00,meteohub,2013-07-29 02:42:00,
2013-07-28 19:47:00,70.2,51.8,30.16,SW,230,12.0,18.0,52,0.00,,,0.00,meteohub,2013-07-29 02:47:00,
2013-07-28 19:52:00,70.0,52.0,30.17,West,261,16.0,16.0,53,0.00,,,0.00,meteohub,2013-07-29 02:52:00,
2013-07-28 19:57:00,70.0,52.0,30.16,WSW,249,7.0,16.0,53,0.00,,,0.00,meteohub,2013-07-29 02:57:00,
2013-07-28 20:03:00,69.8,52.3,30.17,SW,226,6.0,16.0,54,0.00,,,0.00,meteohub,2013-07-29 03:03:00,
2013-07-28 20:09:00,69.4,52.2,30.17,SW,230,8.0,17.0,54,0.00,,,0.00,meteohub,2013-07-29 03:09:00,
2013-07-28 20:15:00,68.5,52.2,30.17,SW,217,13.0,17.0,56,0.00,,,0.00,meteohub,2013-07-29 03:15:00,
2013-07-28 20:22:00,68.2,52.3,30.16,SW,227,7.0,20.0,57,0.00,,,0.00,meteohub,2013-07-29 03:22:00,
2013-07-28 20:32:00,67.6,52.9,30.16,West,279,5.0,20.0,59,0.00,,,0.00,meteohub,2013-07-29 03:32:00,
2013-07-28 20:37:00,67.5,53.1,30.17,SW,226,7.0,14.0,60,0.00,,,0.00,meteohub,2013-07-29 03:37:00,
2013-07-28 20:43:00,67.3,52.9,30.16,South,182,5.0,14.0,60,0.00,,,0.00,meteohub,2013-07-29 03:43:00,
2013-07-28 20:48:00,67.1,52.7,30.16,SSE,157,4.0,14.0,60,0.00,,,0.00,meteohub,2013-07-29 03:48:00,
2013-07-28 20:57:00,66.9,53.1,30.16,SW,236,2.0,14.0,61,0.00,,,0.00,meteohub,2013-07-29 03:57:00,
2013-07-28 21:01:00,66.7,52.9,30.16,WNW,287,5.0,14.0,61,0.00,,,0.00,meteohub,2013-07-29 04:01:00,
2013-07-28 21:02:00,66.7,52.9,30.16,West,264,3.0,14.0,61,0.00,,,0.00,meteohub,2013-07-29 04:02:00,
2013-07-28 21:03:00,66.6,52.7,30.16,South,190,4.0,14.0,61,0.00,,,0.00,meteohub,2013-07-29 04:03:00,
2013-07-28 21:04:00,66.6,52.7,30.17,West,274,8.0,14.0,61,0.00,,,0.00,meteohub,2013-07-29 04:04:00,
2013-07-28 21:09:00,66.4,52.5,30.16,WSW,248,5.0,14.0,61,0.00,,,0.00,meteohub,2013-07-29 04:09:00,
2013-07-28 21:10:00,66.4,52.5,30.16,West,259,1.0,16.0,61,0.00,,,0.00,meteohub,2013-07-29 04:10:00,
2013-07-28 21:16:00,66.4,52.5,30.16,West,271,8.0,16.0,61,0.00,,,0.00,meteohub,2013-07-29 04:16:00,
2013-07-28 21:21:00,66.4,52.5,30.16,West,277,4.0,20.0,61,0.00,,,0.00,meteohub,2013-07-29 04:21:00,
2013-07-28 21:26:00,66.4,52.5,30.16,WNW,288,6.0,20.0,61,0.00,,,0.00,meteohub,2013-07-29 04:26:00,
2013-07-28 21:31:00,66.2,52.3,30.16,West,275,8.0,19.0,61,0.00,,,0.00,meteohub,2013-07-29 04:31:00,
2013-07-28 21:36:00,66.2,52.3,30.16,SSW,205,6.0,14.0,61,0.00,,,0.00,meteohub,2013-07-29 04:36:00,
2013-07-28 21:42:00,66.4,52.5,30.16,WNW,300,10.0,19.0,61,0.00,,,0.00,meteohub,2013-07-29 04:42:00,
2013-07-28 21:47:00,66.2,52.3,30.16,SSE,151,3.0,19.0,61,0.00,,,0.00,meteohub,2013-07-29 04:47:00,
2013-07-28 21:52:00,66.0,52.2,30.16,West,275,3.0,19.0,61,0.00,,,0.00,meteohub,2013-07-29 04:52:00,
2013-07-28 21:57:00,65.8,52.0,30.16,WNW,292,3.0,19.0,61,0.00,,,0.00,meteohub,2013-07-29 04:57:00,
2013-07-28 22:02:00,65.8,52.5,30.16,WSW,250,7.0,19.0,62,0.00,,,0.00,meteohub,2013-07-29 05:02:00,
2013-07-28 22:07:00,65.5,52.5,30.17,SSW,210,7.0,19.0,63,0.00,,,0.00,meteohub,2013-07-29 05:07:00,
2013-07-28 22:12:00,65.1,52.2,30.17,SSW,207,7.0,15.0,63,0.00,,,0.00,meteohub,2013-07-29 05:12:00,
2013-07-28 22:18:00,64.9,52.0,30.17,NNW,327,6.0,16.0,63,0.00,,,0.00,meteohub,2013-07-29 05:18:00,
2013-07-28 22:23:00,64.9,52.5,30.17,SSW,202,4.0,16.0,64,0.00,,,0.00,meteohub,2013-07-29 05:23:00,
2013-07-28 22:28:00,64.6,52.2,30.17,SW,214,3.0,16.0,64,0.00,,,0.00,meteohub,2013-07-29 05:28:00,
2013-07-28 22:33:00,64.2,51.8,30.17,WNW,288,5.0,14.0,64,0.00,,,0.00,meteohub,2013-07-29 05:33:00,
2013-07-28 22:38:00,64.0,51.6,30.17,SW,217,5.0,14.0,64,0.00,,,0.00,meteohub,2013-07-29 05:38:00,
2013-07-28 22:44:00,63.9,51.4,30.17,WSW,238,8.0,14.0,64,0.00,,,0.00,meteohub,2013-07-29 05:44:00,
2013-07-28 22:49:00,63.9,51.8,30.17,WSW,250,5.0,15.0,65,0.00,,,0.00,meteohub,2013-07-29 05:49:00,
2013-07-28 22:54:00,63.7,51.6,30.17,SW,220,7.0,15.0,65,0.00,,,0.00,meteohub,2013-07-29 05:54:00,
2013-07-28 22:59:00,63.5,51.4,30.17,WSW,256,2.0,15.0,65,0.00,,,0.00,meteohub,2013-07-29 05:59:00,
2013-07-28 23:04:00,63.3,51.8,30.17,SW,222,8.0,14.0,66,0.00,,,0.00,meteohub,2013-07-29 06:04:00,
2013-07-28 23:09:00,63.3,51.8,30.17,SW,217,10.0,17.0,66,0.00,,,0.00,meteohub,2013-07-29 06:09:00,
2013-07-28 23:14:00,63.1,51.6,30.18,SSW,210,4.0,17.0,66,0.00,,,0.00,meteohub,2013-07-29 06:14:00,
2013-07-28 23:19:00,63.0,51.4,30.17,SW,229,6.0,17.0,66,0.00,,,0.00,meteohub,2013-07-29 06:19:00,
2013-07-28 23:25:00,62.8,51.6,30.17,SW,216,9.0,22.0,67,0.00,,,0.00,meteohub,2013-07-29 06:25:00,
2013-07-28 23:30:00,62.4,51.8,30.17,West,273,6.0,22.0,68,0.00,,,0.00,meteohub,2013-07-29 06:30:00,
2013-07-28 23:35:00,62.2,52.0,30.17,SSW,203,12.0,22.0,69,0.00,,,0.00,meteohub,2013-07-29 06:35:00,
2013-07-28 23:40:00,62.1,51.8,30.17,SW,214,4.0,17.0,69,0.00,,,0.00,meteohub,2013-07-29 06:40:00,
2013-07-28 23:45:00,62.1,51.8,30.18,WSW,256,12.0,17.0,69,0.00,,,0.00,meteohub,2013-07-29 06:45:00,
2013-07-28 23:50:00,61.9,51.6,30.18,SW,217,8.0,16.0,69,0.00,,,0.00,meteohub,2013-07-29 06:50:00,
2013-07-28 23:56:00,61.5,51.6,30.19,WSW,245,5.0,14.0,70,0.00,,,0.00,meteohub,2013-07-29 06:56:00,